| time (UTC) | temp F | wind direction | speed knots | gust knots | rain 1hr in | rain 24hr in | rain mn in | humidity % | barometer mb |
| 20260506044503 | 39 | 360 | 0.0 | 0.9 | 0.00 | 0.00 | 0.00 | 92 | 1013.4 |
| 20260506044003 | 38 | 0 | 0.0 | 0.0 | 0.00 | 0.00 | 0.00 | 93 | 1013.4 |
| 20260506043503 | 36 | 0 | 0.0 | 0.0 | 0.00 | 0.00 | 0.00 | 88 | 1013.1 |
| 20260506043003 | 34 | 0 | 0.0 | 0.0 | 0.00 | 0.00 | 0.00 | 89 | 1013.2 |
| 20260506042503 | 33 | 0 | 0.0 | 0.0 | 0.00 | 0.00 | 0.00 | 89 | 1013.0 |
| 20260506042003 | 32 | 0 | 0.0 | 0.0 | 0.00 | 0.00 | 0.00 | 89 | 1013.0 |
| 20260506041714 | 31 | 0 | 0.0 | 0.0 | 0.00 | 0.00 | 0.00 | 89 | 1013.0 |
| 20260506041003 | 30 | 0 | 0.0 | 0.0 | 0.00 | 0.00 | 0.00 | 89 | 1012.9 |
| 20260506040503 | 30 | 0 | 0.0 | 0.0 | 0.00 | 0.00 | 0.00 | 89 | 1012.9 |
| 20260506040004 | 30 | 0 | 0.0 | 0.0 | 0.00 | 0.00 | 0.00 | 89 | 1012.7 |
| 20260506035503 | 29 | 0 | 0.0 | 0.0 | 0.00 | 0.00 | 0.00 | 89 | 1012.7 |
| 20260506035003 | 29 | 0 | 0.0 | 0.0 | 0.00 | 0.00 | 0.00 | 89 | 1012.7 |
| 20260506034503 | 28 | 0 | 0.0 | 0.0 | 0.00 | 0.00 | 0.00 | 88 | 1012.7 |
| 20260506034215 | 28 | 0 | 0.0 | 0.0 | 0.00 | 0.00 | 0.00 | 84 | 1012.8 |
| 20260506033503 | 28 | 0 | 0.0 | 0.0 | 0.00 | 0.00 | 0.00 | 84 | 1012.6 |
| 20260506033216 | 28 | 0 | 0.0 | 0.0 | 0.00 | 0.00 | 0.00 | 84 | 1012.6 |
| 20260506032714 | 27 | 0 | 0.0 | 0.0 | 0.00 | 0.00 | 0.00 | 84 | 1012.5 |
| 20260506032003 | 27 | 0 | 0.0 | 0.0 | 0.00 | 0.00 | 0.00 | 83 | 1012.5 |
| 20260506031503 | 27 | 0 | 0.0 | 0.0 | 0.00 | 0.00 | 0.00 | 83 | 1012.3 |
| 20260506031003 | 26 | 0 | 0.0 | 0.0 | 0.00 | 0.00 | 0.00 | 84 | 1012.3 |
| 20260506030503 | 26 | 0 | 0.0 | 0.0 | 0.00 | 0.00 | 0.00 | 84 | 1012.4 |
| 20260506030214 | 26 | 0 | 0.0 | 0.0 | 0.00 | 0.00 | 0.00 | 84 | 1012.3 |
| 20260506025503 | 26 | 0 | 0.0 | 0.0 | 0.00 | 0.00 | 0.00 | 84 | 1012.2 |
| 20260506025003 | 26 | 0 | 0.0 | 0.0 | 0.00 | 0.00 | 0.00 | 84 | 1012.2 |
| 20260506024504 | 25 | 0 | 0.0 | 0.0 | 0.00 | 0.00 | 0.00 | 84 | 1012.1 |
| 20260506024003 | 25 | 0 | 0.0 | 0.0 | 0.00 | 0.00 | 0.00 | 83 | 1012.1 |
| 20260506023503 | 25 | 0 | 0.0 | 0.0 | 0.00 | 0.00 | 0.00 | 83 | 1012.2 |
| 20260506023003 | 25 | 0 | 0.0 | 0.0 | 0.00 | 0.00 | 0.00 | 83 | 1012.0 |
| 20260506022503 | 25 | 0 | 0.0 | 0.0 | 0.00 | 0.00 | 0.00 | 83 | 1012.1 |
| 20260506022004 | 25 | 0 | 0.0 | 0.0 | 0.00 | 0.00 | 0.00 | 83 | 1012.0 |
| 20260506021503 | 25 | 0 | 0.0 | 0.0 | 0.00 | 0.00 | 0.00 | 83 | 1011.9 |
| 20260506021003 | 25 | 0 | 0.0 | 0.0 | 0.00 | 0.00 | 0.00 | 83 | 1011.9 |
| 20260506020503 | 25 | 0 | 0.0 | 0.0 | 0.00 | 0.00 | 0.00 | 83 | 1012.0 |
| 20260506020004 | 25 | 0 | 0.0 | 0.0 | 0.00 | 0.00 | 0.00 | 83 | 1012.0 |
| 20260506015503 | 25 | 0 | 0.0 | 0.0 | 0.00 | 0.00 | 0.00 | 83 | 1012.0 |
| 20260506015003 | 25 | 0 | 0.0 | 0.0 | 0.00 | 0.00 | 0.00 | 83 | 1012.1 |
| 20260506014503 | 25 | 0 | 0.0 | 0.0 | 0.00 | 0.00 | 0.00 | 83 | 1011.9 |
| 20260506014003 | 25 | 0 | 0.0 | 0.0 | 0.00 | 0.00 | 0.00 | 83 | 1011.9 |
| 20260506013714 | 25 | 0 | 0.0 | 0.0 | 0.00 | 0.00 | 0.00 | 83 | 1011.9 |
| 20260506013003 | 25 | 0 | 0.0 | 0.0 | 0.00 | 0.00 | 0.00 | 83 | 1011.7 |
| 20260506012503 | 25 | 0 | 0.0 | 0.0 | 0.00 | 0.00 | 0.00 | 83 | 1011.6 |
| 20260506012003 | 25 | 0 | 0.0 | 0.0 | 0.00 | 0.00 | 0.00 | 83 | 1011.4 |
| 20260506011503 | 25 | 0 | 0.0 | 0.0 | 0.00 | 0.00 | 0.00 | 82 | 1011.5 |
| 20260506011003 | 25 | 0 | 0.0 | 0.0 | 0.00 | 0.00 | 0.00 | 82 | 1011.3 |
| 20260506010503 | 26 | 0 | 0.0 | 0.0 | 0.00 | 0.00 | 0.00 | 82 | 1011.3 |
| 20260506010004 | 26 | 0 | 0.0 | 0.0 | 0.00 | 0.00 | 0.00 | 82 | 1011.3 |
| 20260506005503 | 26 | 0 | 0.0 | 0.0 | 0.00 | 0.00 | 0.00 | 82 | 1011.4 |
| 20260506005003 | 26 | 0 | 0.0 | 0.0 | 0.00 | 0.00 | 0.00 | 82 | 1011.4 |
| 20260506004504 | 26 | 0 | 0.0 | 0.0 | 0.00 | 0.00 | 0.00 | 82 | 1011.3 |
| 20260506004003 | 26 | 0 | 0.0 | 0.0 | 0.00 | 0.00 | 0.00 | 82 | 1011.1 |
| 20260506003503 | 26 | 0 | 0.0 | 0.0 | 0.00 | 0.00 | 0.00 | 82 | 1011.3 |
| 20260506003003 | 26 | 0 | 0.0 | 0.0 | 0.00 | 0.00 | 0.00 | 82 | 1011.1 |
| 20260506002503 | 26 | 0 | 0.0 | 0.0 | 0.00 | 0.00 | 0.00 | 81 | 1011.0 |
| 20260506002214 | 26 | 0 | 0.0 | 0.0 | 0.00 | 0.00 | 0.00 | 81 | 1011.1 |
| 20260506001503 | 26 | 0 | 0.0 | 0.0 | 0.00 | 0.00 | 0.00 | 81 | 1011.0 |
| 20260506001003 | 26 | 0 | 0.0 | 0.0 | 0.00 | 0.00 | 0.00 | 81 | 1010.9 |
| 20260506000503 | 26 | 0 | 0.0 | 0.0 | 0.00 | 0.00 | 0.00 | 81 | 1010.9 |
| 20260506000004 | 26 | 0 | 0.0 | 0.0 | 0.00 | 0.00 | 0.00 | 81 | 1010.8 |
| 20260505235503 | 26 | 0 | 0.0 | 0.0 | 0.00 | 0.00 | 0.00 | 81 | 1010.8 |
| 20260505235003 | 26 | 0 | 0.0 | 0.0 | 0.00 | 0.00 | 0.00 | 81 | 1010.9 |
| 20260505234503 | 26 | 0 | 0.0 | 0.0 | 0.00 | 0.00 | 0.00 | 81 | 1011.0 |
| 20260505234003 | 26 | 0 | 0.0 | 0.0 | 0.00 | 0.00 | 0.00 | 81 | 1011.0 |
| 20260505233503 | 26 | 0 | 0.0 | 0.0 | 0.00 | 0.00 | 0.00 | 80 | 1010.9 |
| 20260505233003 | 26 | 0 | 0.0 | 0.0 | 0.00 | 0.00 | 0.00 | 80 | 1010.8 |
| 20260505232503 | 26 | 0 | 0.0 | 0.0 | 0.00 | 0.00 | 0.00 | 80 | 1010.8 |
| 20260505232004 | 26 | 0 | 0.0 | 0.0 | 0.00 | 0.00 | 0.00 | 80 | 1010.8 |
| 20260505231504 | 27 | 0 | 0.0 | 0.0 | 0.00 | 0.00 | 0.00 | 79 | 1010.9 |
| 20260505231003 | 27 | 0 | 0.0 | 0.0 | 0.00 | 0.00 | 0.00 | 79 | 1010.8 |
| 20260505230713 | 27 | 0 | 0.0 | 0.0 | 0.00 | 0.00 | 0.00 | 78 | 1010.8 |
| 20260505230216 | 27 | 0 | 0.0 | 0.0 | 0.00 | 0.00 | 0.00 | 78 | 1010.8 |
| 20260505225504 | 27 | 0 | 0.0 | 0.0 | 0.00 | 0.00 | 0.00 | 78 | 1010.8 |
| 20260505225003 | 28 | 0 | 0.0 | 0.0 | 0.00 | 0.00 | 0.00 | 78 | 1010.8 |
| 20260505224503 | 28 | 0 | 0.0 | 0.0 | 0.00 | 0.00 | 0.00 | 78 | 1010.7 |
| 20260505224003 | 28 | 0 | 0.0 | 0.0 | 0.00 | 0.00 | 0.00 | 78 | 1010.7 |
| 20260505223716 | 28 | 0 | 0.0 | 0.0 | 0.00 | 0.00 | 0.00 | 78 | 1010.7 |
| 20260505223003 | 28 | 0 | 0.0 | 0.0 | 0.00 | 0.00 | 0.00 | 78 | 1010.7 |
| 20260505222503 | 28 | 0 | 0.0 | 0.0 | 0.00 | 0.00 | 0.00 | 82 | 1010.8 |
| 20260505222215 | 29 | 0 | 0.0 | 0.0 | 0.00 | 0.00 | 0.00 | 82 | 1010.6 |
| 20260505221713 | 29 | 0 | 0.0 | 0.0 | 0.00 | 0.00 | 0.00 | 81 | 1010.6 |
| 20260505221003 | 29 | 0 | 0.0 | 0.0 | 0.00 | 0.00 | 0.00 | 81 | 1010.6 |
| 20260505220503 | 29 | 0 | 0.0 | 0.0 | 0.00 | 0.00 | 0.00 | 80 | 1010.7 |
| 20260505220217 | 29 | 0 | 0.0 | 0.0 | 0.00 | 0.00 | 0.00 | 80 | 1010.6 |
| 20260505215503 | 29 | 0 | 0.0 | 0.0 | 0.00 | 0.00 | 0.00 | 80 | 1010.6 |
| 20260505215003 | 29 | 0 | 0.0 | 0.0 | 0.00 | 0.00 | 0.00 | 79 | 1010.6 |
| 20260505214503 | 30 | 0 | 0.0 | 0.0 | 0.00 | 0.00 | 0.00 | 79 | 1010.6 |
| 20260505214003 | 30 | 0 | 0.0 | 0.0 | 0.00 | 0.00 | 0.00 | 79 | 1010.6 |
| 20260505213503 | 31 | 0 | 0.0 | 0.0 | 0.00 | 0.00 | 0.00 | 78 | 1010.5 |
| 20260505213215 | 31 | 0 | 0.0 | 0.0 | 0.00 | 0.00 | 0.00 | 78 | 1010.5 |
| 20260505212503 | 31 | 0 | 0.0 | 0.0 | 0.00 | 0.00 | 0.00 | 78 | 1010.4 |
| 20260505212216 | 31 | 0 | 0.0 | 0.0 | 0.00 | 0.00 | 0.00 | 77 | 1010.5 |
| 20260505211503 | 31 | 0 | 0.0 | 0.0 | 0.00 | 0.00 | 0.00 | 77 | 1010.6 |
| 20260505211217 | 31 | 0 | 0.0 | 0.0 | 0.00 | 0.00 | 0.00 | 77 | 1010.5 |
| 20260505210503 | 31 | 0 | 0.0 | 0.0 | 0.00 | 0.00 | 0.00 | 77 | 1010.5 |
| 20260505210228 | 31 | 0 | 0.0 | 0.0 | 0.00 | 0.00 | 0.00 | 76 | 1010.5 |
| 20260505205503 | 32 | 0 | 0.0 | 0.0 | 0.00 | 0.00 | 0.00 | 75 | 1010.3 |
| 20260505205003 | 32 | 0 | 0.0 | 0.0 | 0.00 | 0.00 | 0.00 | 75 | 1010.4 |
| 20260505204503 | 33 | 0 | 0.0 | 0.0 | 0.00 | 0.00 | 0.00 | 75 | 1010.3 |
| 20260505204214 | 33 | 0 | 0.0 | 0.0 | 0.00 | 0.00 | 0.00 | 74 | 1010.3 |
| 20260505203503 | 33 | 0 | 0.0 | 0.0 | 0.00 | 0.00 | 0.00 | 74 | 1010.2 |
| 20260505203003 | 33 | 0 | 0.0 | 0.0 | 0.00 | 0.00 | 0.00 | 74 | 1010.3 |
| 20260505202503 | 33 | 0 | 0.0 | 0.0 | 0.00 | 0.00 | 0.00 | 74 | 1010.2 |
| 20260505202003 | 33 | 0 | 0.0 | 0.0 | 0.00 | 0.00 | 0.00 | 74 | 1010.3 |
| 20260505201714 | 33 | 0 | 0.0 | 0.0 | 0.00 | 0.00 | 0.00 | 74 | 1010.1 |
| 20260505201003 | 33 | 0 | 0.0 | 0.0 | 0.00 | 0.00 | 0.00 | 73 | 1010.1 |
| 20260505200503 | 33 | 0 | 0.0 | 0.0 | 0.00 | 0.00 | 0.00 | 73 | 1010.0 |
| 20260505200004 | 33 | 90 | 0.0 | 1.7 | 0.00 | 0.00 | 0.00 | 72 | 1010.1 |
| 20260505195716 | 33 | 90 | 0.0 | 1.7 | 0.00 | 0.00 | 0.00 | 72 | 1010.0 |
| 20260505195003 | 34 | 0 | 0.0 | 0.0 | 0.00 | 0.00 | 0.00 | 72 | 1010.0 |
| 20260505194503 | 34 | 0 | 0.0 | 0.0 | 0.00 | 0.00 | 0.00 | 70 | 1009.9 |
| 20260505194004 | 34 | 0 | 0.0 | 0.0 | 0.00 | 0.00 | 0.00 | 70 | 1009.9 |
| 20260505193504 | 34 | 0 | 0.0 | 0.0 | 0.00 | 0.00 | 0.00 | 69 | 1009.8 |
| 20260505193003 | 34 | 0 | 0.0 | 0.0 | 0.00 | 0.00 | 0.00 | 68 | 1009.8 |
| 20260505192503 | 35 | 0 | 0.0 | 0.0 | 0.00 | 0.00 | 0.00 | 68 | 1010.0 |
| 20260505192003 | 35 | 0 | 0.0 | 0.0 | 0.00 | 0.00 | 0.00 | 66 | 1009.9 |
| 20260505191503 | 36 | 0 | 0.0 | 0.0 | 0.00 | 0.00 | 0.00 | 64 | 1009.9 |
| 20260505191003 | 36 | 0 | 0.0 | 0.0 | 0.00 | 0.00 | 0.00 | 63 | 1009.8 |
| 20260505190504 | 37 | 0 | 0.0 | 0.0 | 0.00 | 0.00 | 0.00 | 62 | 1009.7 |
| 20260505190004 | 37 | 0 | 0.0 | 0.0 | 0.00 | 0.00 | 0.00 | 61 | 1009.7 |
| 20260505185504 | 38 | 315 | 0.0 | 1.7 | 0.00 | 0.00 | 0.00 | 64 | 1009.7 |
| 20260505185004 | 38 | 315 | 0.0 | 1.7 | 0.00 | 0.00 | 0.00 | 64 | 1009.6 |
| 20260505184503 | 39 | 303 | 0.0 | 1.7 | 0.00 | 0.00 | 0.00 | 63 | 1009.6 |
| 20260505184003 | 39 | 349 | 0.0 | 1.7 | 0.00 | 0.00 | 0.00 | 62 | 1009.6 |
| 20260505183504 | 39 | 360 | 0.0 | 1.7 | 0.00 | 0.00 | 0.00 | 61 | 1009.4 |
| 20260505183003 | 40 | 0 | 0.0 | 0.0 | 0.00 | 0.00 | 0.00 | 61 | 1009.5 |
| 20260505182503 | 40 | 360 | 0.0 | 0.9 | 0.00 | 0.00 | 0.00 | 61 | 1009.4 |
| 20260505182004 | 40 | 337 | 0.0 | 0.9 | 0.00 | 0.00 | 0.00 | 60 | 1009.4 |
| 20260505181503 | 40 | 283 | 0.0 | 1.7 | 0.00 | 0.00 | 0.00 | 59 | 1009.5 |
| 20260505181003 | 41 | 300 | 0.9 | 2.6 | 0.00 | 0.00 | 0.00 | 58 | 1009.3 |
| 20260505180503 | 41 | 300 | 0.9 | 2.6 | 0.00 | 0.00 | 0.00 | 56 | 1009.2 |
| 20260505180004 | 41 | 301 | 0.9 | 2.6 | 0.00 | 0.00 | 0.00 | 55 | 1009.2 |
| 20260505175503 | 42 | 295 | 1.7 | 2.6 | 0.00 | 0.00 | 0.00 | 54 | 1009.2 |
| 20260505175003 | 42 | 294 | 0.9 | 2.6 | 0.00 | 0.00 | 0.00 | 53 | 1009.1 |
| 20260505174504 | 42 | 318 | 0.9 | 1.7 | 0.00 | 0.00 | 0.00 | 53 | 1009.0 |
| 20260505174003 | 42 | 299 | 1.7 | 2.6 | 0.00 | 0.00 | 0.00 | 52 | 1009.0 |
| 20260505173714 | 43 | 299 | 1.7 | 2.6 | 0.00 | 0.00 | 0.00 | 52 | 1009.0 |
| 20260505173003 | 43 | 281 | 2.6 | 3.5 | 0.00 | 0.00 | 0.00 | 50 | 1009.0 |
| 20260505172503 | 43 | 307 | 2.6 | 3.5 | 0.00 | 0.00 | 0.00 | 50 | 1008.9 |
| 20260505172213 | 43 | 319 | 1.7 | 2.6 | 0.00 | 0.00 | 0.00 | 50 | 1008.8 |
| 20260505171503 | 44 | 294 | 1.7 | 3.5 | 0.00 | 0.00 | 0.00 | 49 | 1008.8 |
| 20260505171003 | 44 | 271 | 2.6 | 3.5 | 0.00 | 0.00 | 0.00 | 50 | 1008.9 |
| 20260505170503 | 44 | 296 | 2.6 | 3.5 | 0.00 | 0.00 | 0.00 | 49 | 1008.9 |
| 20260505170004 | 44 | 315 | 2.6 | 3.5 | 0.00 | 0.00 | 0.00 | 49 | 1008.8 |
| 20260505165503 | 44 | 314 | 1.7 | 3.5 | 0.00 | 0.00 | 0.00 | 50 | 1008.9 |
| 20260505165004 | 44 | 314 | 2.6 | 3.5 | 0.00 | 0.00 | 0.00 | 50 | 1008.9 |
| 20260505164504 | 44 | 321 | 2.6 | 3.5 | 0.00 | 0.00 | 0.00 | 50 | 1008.8 |
| 20260505164217 | 45 | 314 | 2.6 | 3.5 | 0.00 | 0.00 | 0.00 | 48 | 1008.9 |
| 20260505163715 | 45 | 307 | 2.6 | 3.5 | 0.00 | 0.00 | 0.00 | 48 | 1008.8 |
| 20260505163004 | 45 | 322 | 1.7 | 3.5 | 0.00 | 0.00 | 0.00 | 48 | 1008.6 |
| 20260505162503 | 45 | 302 | 2.6 | 3.5 | 0.00 | 0.00 | 0.00 | 48 | 1008.7 |
| 20260505162003 | 46 | 294 | 2.6 | 3.5 | 0.00 | 0.00 | 0.00 | 48 | 1008.7 |
| 20260505161717 | 46 | 308 | 2.6 | 4.3 | 0.00 | 0.00 | 0.00 | 48 | 1008.6 |
| 20260505161003 | 46 | 321 | 2.6 | 4.3 | 0.00 | 0.00 | 0.00 | 48 | 1008.6 |
| 20260505160503 | 46 | 329 | 2.6 | 3.5 | 0.00 | 0.00 | 0.00 | 48 | 1008.7 |
| 20260505160216 | 46 | 334 | 1.7 | 3.5 | 0.00 | 0.00 | 0.00 | 48 | 1008.6 |
| 20260505153003 | 47 | 286 | 2.6 | 3.5 | 0.00 | 0.00 | 0.00 | 43 | 1008.4 |
| 20260505152504 | 47 | 297 | 2.6 | 7.0 | 0.00 | 0.00 | 0.00 | 43 | 1008.3 |
| 20260505152003 | 47 | 315 | 3.5 | 7.0 | 0.00 | 0.00 | 0.00 | 39 | 1008.5 |
| 20260505151505 | 48 | 319 | 3.5 | 4.3 | 0.00 | 0.00 | 0.00 | 40 | 1008.5 |
| 20260505151003 | 48 | 312 | 2.6 | 4.3 | 0.00 | 0.00 | 0.00 | 39 | 1008.3 |
| 20260505150504 | 48 | 314 | 2.6 | 4.3 | 0.00 | 0.00 | 0.00 | 41 | 1008.5 |
| 20260505140503 | 50 | 298 | 2.6 | 7.0 | 0.00 | 0.00 | 0.00 | 42 | 1008.1 |
| 20260505125003 | 53 | 339 | 3.5 | 5.2 | 0.00 | 0.00 | 0.00 | 37 | 1007.8 |
| 20260505124503 | 52 | 311 | 3.5 | 7.8 | 0.00 | 0.00 | 0.00 | 36 | 1007.7 |
| 20260505124003 | 52 | 289 | 4.3 | 7.8 | 0.00 | 0.00 | 0.00 | 37 | 1007.8 |
| 20260505123712 | 51 | 279 | 4.3 | 7.8 | 0.00 | 0.00 | 0.00 | 37 | 1007.7 |
| 20260505123003 | 51 | 303 | 4.3 | 7.0 | 0.00 | 0.00 | 0.00 | 39 | 1007.6 |
| 20260505122713 | 51 | 314 | 4.3 | 7.0 | 0.00 | 0.00 | 0.00 | 41 | 1007.7 |
| 20260505122217 | 51 | 344 | 4.3 | 7.8 | 0.00 | 0.00 | 0.00 | 40 | 1007.6 |
| 20260505121714 | 51 | 351 | 4.3 | 7.8 | 0.00 | 0.00 | 0.00 | 40 | 1007.7 |
| 20260505121003 | 51 | 312 | 4.3 | 4.3 | 0.00 | 0.00 | 0.00 | 40 | 1007.7 |
| 20260505120503 | 51 | 304 | 4.3 | 8.7 | 0.00 | 0.00 | 0.00 | 43 | 1007.5 |
| 20260505120005 | 51 | 306 | 4.3 | 8.7 | 0.00 | 0.00 | 0.00 | 42 | 1007.4 |
| 20260505115716 | 51 | 305 | 4.3 | 8.7 | 0.00 | 0.00 | 0.00 | 41 | 1007.4 |
| 20260505115003 | 52 | 301 | 3.5 | 4.3 | 0.00 | 0.00 | 0.00 | 41 | 1007.3 |
| 20260505114503 | 52 | 315 | 3.5 | 4.3 | 0.00 | 0.00 | 0.00 | 40 | 1007.4 |
| 20260505114003 | 53 | 301 | 3.5 | 4.3 | 0.00 | 0.00 | 0.00 | 41 | 1007.5 |
| 20260505113503 | 52 | 304 | 3.5 | 7.0 | 0.00 | 0.00 | 0.00 | 44 | 1007.3 |
| 20260505113004 | 51 | 324 | 3.5 | 7.0 | 0.00 | 0.00 | 0.00 | 45 | 1007.3 |
| 20260505112503 | 51 | 323 | 4.3 | 6.1 | 0.00 | 0.00 | 0.00 | 43 | 1007.3 |
| 20260505112003 | 51 | 321 | 4.3 | 6.1 | 0.00 | 0.00 | 0.00 | 41 | 1007.1 |
| 20260505111503 | 51 | 326 | 3.5 | 4.3 | 0.00 | 0.00 | 0.00 | 43 | 1007.0 |
| 20260505111003 | 52 | 301 | 3.5 | 4.3 | 0.00 | 0.00 | 0.00 | 44 | 1006.9 |
| 20260505110503 | 51 | 330 | 3.5 | 4.3 | 0.00 | 0.00 | 0.00 | 46 | 1007.0 |
| 20260505110214 | 51 | 321 | 3.5 | 7.0 | 0.00 | 0.00 | 0.00 | 44 | 1006.7 |
| 20260505102003 | 53 | 296 | 3.5 | 4.3 | 0.00 | 0.00 | 0.00 | 49 | 1006.4 |
| 20260505101716 | 53 | 276 | 3.5 | 4.3 | 0.00 | 0.00 | 0.00 | 46 | 1006.4 |
| 20260505101003 | 53 | 294 | 3.5 | 3.5 | 0.00 | 0.00 | 0.00 | 50 | 1006.3 |
| 20260505100505 | 52 | 309 | 3.5 | 4.3 | 0.00 | 0.00 | 0.00 | 50 | 1006.3 |
| 20260505100004 | 52 | 315 | 3.5 | 7.0 | 0.00 | 0.00 | 0.00 | 50 | 1006.1 |
| 20260505095503 | 52 | 317 | 3.5 | 7.0 | 0.00 | 0.01 | 0.00 | 51 | 1006.1 |
| 20260505095003 | 51 | 305 | 3.5 | 5.2 | 0.00 | 0.01 | 0.00 | 51 | 1006.0 |
| 20260505094503 | 52 | 286 | 2.6 | 4.3 | 0.00 | 0.01 | 0.00 | 51 | 1006.0 |
| 20260505094004 | 52 | 298 | 2.6 | 3.5 | 0.00 | 0.01 | 0.00 | 53 | 1006.0 |
| 20260505093714 | 51 | 301 | 2.6 | 3.5 | 0.00 | 0.01 | 0.00 | 52 | 1005.9 |
| 20260505093217 | 51 | 306 | 3.5 | 3.5 | 0.00 | 0.02 | 0.00 | 52 | 1005.9 |
| 20260505092503 | 52 | 339 | 3.5 | 3.5 | 0.00 | 0.02 | 0.00 | 56 | 1005.9 |
| 20260505092003 | 51 | 323 | 3.5 | 4.3 | 0.00 | 0.02 | 0.00 | 54 | 1005.7 |
| 20260505091503 | 53 | 304 | 2.6 | 4.3 | 0.00 | 0.02 | 0.00 | 52 | 1005.7 |
| 20260505091003 | 53 | 302 | 2.6 | 4.3 | 0.00 | 0.04 | 0.00 | 55 | 1005.6 |
| 20260505090503 | 51 | 301 | 2.6 | 3.5 | 0.00 | 0.04 | 0.00 | 58 | 1005.5 |
| 20260505090004 | 50 | 287 | 3.5 | 6.1 | 0.00 | 0.04 | 0.00 | 56 | 1005.5 |
| 20260505085503 | 52 | 293 | 2.6 | 6.1 | 0.00 | 0.04 | 0.00 | 56 | 1005.5 |
| 20260505085003 | 51 | 310 | 1.7 | 3.5 | 0.00 | 0.04 | 0.00 | 60 | 1005.3 |
| 20260505084503 | 50 | 314 | 2.6 | 7.0 | 0.00 | 0.05 | 0.00 | 60 | 1005.3 |
| 20260505084003 | 51 | 322 | 3.5 | 7.0 | 0.00 | 0.05 | 0.00 | 55 | 1005.2 |
| 20260505083503 | 52 | 331 | 2.6 | 3.5 | 0.00 | 0.05 | 0.00 | 54 | 1005.0 |
| 20260505083003 | 53 | 319 | 2.6 | 4.3 | 0.00 | 0.05 | 0.00 | 49 | 1005.0 |
| 20260505082503 | 54 | 305 | 2.6 | 4.3 | 0.00 | 0.06 | 0.00 | 49 | 1004.8 |
| 20260505082003 | 53 | 294 | 2.6 | 4.3 | 0.00 | 0.06 | 0.00 | 52 | 1004.6 |
| 20260505081503 | 51 | 343 | 2.6 | 7.0 | 0.00 | 0.07 | 0.00 | 55 | 1004.8 |
| 20260505081003 | 49 | 351 | 2.6 | 7.0 | 0.00 | 0.07 | 0.00 | 59 | 1004.6 |
| 20260505080713 | 48 | 319 | 2.6 | 6.1 | 0.00 | 0.07 | 0.00 | 59 | 1004.6 |
| 20260505080216 | 49 | 300 | 2.6 | 6.1 | 0.00 | 0.08 | 0.00 | 61 | 1004.7 |
| 20260505075503 | 49 | 292 | 1.7 | 3.5 | 0.00 | 0.09 | 0.00 | 64 | 1004.6 |
| 20260505075004 | 49 | 311 | 1.7 | 3.5 | 0.00 | 0.09 | 0.00 | 63 | 1004.6 |
| 20260505074503 | 49 | 315 | 2.6 | 3.5 | 0.00 | 0.11 | 0.00 | 63 | 1004.4 |
| 20260505074003 | 50 | 317 | 1.7 | 3.5 | 0.00 | 0.12 | 0.00 | 63 | 1004.2 |
| 20260505073716 | 50 | 309 | 1.7 | 4.3 | 0.00 | 0.13 | 0.00 | 63 | 1004.3 |
| 20260505073214 | 49 | 300 | 2.6 | 4.3 | 0.00 | 0.13 | 0.00 | 65 | 1004.2 |
| 20260505072503 | 49 | 315 | 2.6 | 3.5 | 0.00 | 0.13 | 0.00 | 63 | 1003.9 |
| 20260505072003 | 50 | 314 | 2.6 | 3.5 | 0.00 | 0.14 | 0.00 | 61 | 1003.9 |
| 20260505071712 | 50 | 305 | 1.7 | 3.5 | 0.00 | 0.14 | 0.00 | 60 | 1003.9 |
| 20260505071004 | 52 | 262 | 2.6 | 3.5 | 0.00 | 0.14 | 0.00 | 58 | 1003.7 |
| 20260505070504 | 53 | 284 | 2.6 | 3.5 | 0.00 | 0.14 | 0.00 | 57 | 1003.7 |
| 20260505070216 | 53 | 324 | 2.6 | 3.5 | 0.00 | 0.14 | 0.00 | 57 | 1003.6 |
| 20260505065503 | 53 | 312 | 2.6 | 3.5 | 0.00 | 0.14 | 0.00 | 56 | 1003.5 |
| 20260505065003 | 54 | 306 | 2.6 | 3.5 | 0.00 | 0.14 | 0.00 | 56 | 1003.5 |
| 20260505064503 | 53 | 311 | 3.5 | 3.5 | 0.00 | 0.14 | 0.00 | 56 | 1003.2 |
| 20260505064003 | 53 | 306 | 3.5 | 4.3 | 0.00 | 0.14 | 0.00 | 55 | 1003.2 |
| 20260505063503 | 53 | 307 | 3.5 | 6.1 | 0.00 | 0.14 | 0.00 | 55 | 1003.1 |
| 20260505063004 | 53 | 307 | 3.5 | 6.1 | 0.00 | 0.14 | 0.00 | 55 | 1002.9 |
| 20260505062503 | 53 | 313 | 3.5 | 4.3 | 0.00 | 0.14 | 0.00 | 57 | 1002.8 |
| 20260505062003 | 53 | 335 | 3.5 | 4.3 | 0.00 | 0.14 | 0.00 | 55 | 1002.6 |
| 20260505061504 | 54 | 321 | 2.6 | 4.3 | 0.00 | 0.14 | 0.00 | 55 | 1002.8 |
| 20260505061216 | 54 | 311 | 2.6 | 4.3 | 0.00 | 0.14 | 0.00 | 55 | 1002.7 |
| 20260505060503 | 53 | 301 | 2.6 | 5.2 | 0.00 | 0.14 | 0.00 | 56 | 1002.5 |
| 20260505060003 | 53 | 271 | 2.6 | 5.2 | 0.00 | 0.14 | 0.00 | 56 | 1002.5 |
| 20260505055503 | 52 | 317 | 1.7 | 3.5 | 0.00 | 0.14 | 0.00 | 60 | 1002.4 |
| 20260505055003 | 51 | 329 | 1.7 | 3.5 | 0.00 | 0.14 | 0.00 | 61 | 1002.6 |
| 20260505054504 | 51 | 332 | 1.7 | 3.5 | 0.00 | 0.14 | 0.00 | 60 | 1002.3 |
| 20260505054214 | 51 | 350 | 1.7 | 3.5 | 0.00 | 0.14 | 0.00 | 59 | 1002.4 |
| 20260505053717 | 52 | 355 | 1.7 | 3.5 | 0.00 | 0.14 | 0.00 | 59 | 1002.4 |
| 20260505053003 | 52 | 360 | 2.6 | 3.5 | 0.00 | 0.14 | 0.00 | 59 | 1002.2 |
| 20260505052503 | 51 | 334 | 1.7 | 3.5 | 0.00 | 0.14 | 0.00 | 61 | 1002.2 |
| 20260505052003 | 51 | 329 | 1.7 | 5.2 | 0.00 | 0.14 | 0.00 | 63 | 1002.2 |
| 20260505051503 | 50 | 317 | 1.7 | 5.2 | 0.00 | 0.14 | 0.00 | 65 | 1002.2 |
| 20260505051003 | 49 | 293 | 1.7 | 4.3 | 0.00 | 0.14 | 0.00 | 68 | 1002.1 |
| 20260505050715 | 48 | 302 | 2.6 | 3.5 | 0.00 | 0.14 | 0.00 | 69 | 1002.3 |
| 20260505050213 | 48 | 311 | 2.6 | 3.5 | 0.00 | 0.14 | 0.00 | 69 | 1002.1 |